Weather History for Grayling, MI

Change the Weather History Date:

Tuesday, February 26, 2013

  Actual Average (KHTL) Record (KHTL)
Temperature  
Mean Temperature 22 °F 23 °F  
Max Temperature 33 °F 33 °F 59 °F (2000)
Min Temperature 12 °F 13 °F -19 °F (1963)
Degree Days  
Heating Degree Days 42 42  
Month to date heating degree days 1177  
Since 1 July heating degree days 5789  
Moisture  
Dew Point 23 °F    
Average Humidity 82    
Maximum Humidity 99    
Minimum Humidity 67    
Precipitation  
Precipitation 0.00 in 0.05 in 0.57 in (2009)
Month to date precipitation 1.10  
Year to date precipitation 2.61  
Snow  
Snow 0.00 in 0.40 in 6.20 in (1946)
Month to date snowfall 11.7  
Since 1 July snowfall 53.8  
Snow Depth -    
Sea Level Pressure  
Sea Level Pressure 29.94 in    
Wind  
Wind Speed 9 mph (ENE)    
Max Wind Speed 25 mph    
Max Gust Speed 36 mph    
Visibility 9 miles    
Events Snow    
T = Trace of Precipitation, MM = Missing Value Source: NWS Daily Summary

Daily Weather History Graph

Daily Weather History Graph

Search for Another Location

Airport:

Trip Planner

Search our weather history database for the weather conditions in past years. The results will help you decide how hot, cold, wet, or windy it might be!

Date:

Astronomy

Feb. 26, 2013 Rise Set
Actual Time 7:21 AM EST 6:23 PM EST
Civil Twilight 6:51 AM EST 6:52 PM EST
Nautical Twilight 6:17 AM EST 7:26 PM EST
Astronomical Twilight 5:44 AM EST 8:00 PM EST
Moon 7:44 PM EST (2/26) 7:19 AM EST (2/26)
Length of Visible Light 12h 00m
Length of Day
11h 01m
Full, 99% of the Moon is Illuminated
Feb 26
Full
Mar 4
Last Quarter
Mar 11
New
Mar 19
First Quarter
Mar 27
Full

Hourly Weather History & Observations

Time (EST) Temp. Windchill Dew Point Humidity Pressure Visibility Wind Dir Wind Speed Gust Speed Precip Events Conditions
12:15 AM 28.4 °F 23.3 °F 23.5 °F 82% 30.11 in 10.0 mi ESE 4.6 mph - N/A   Overcast
12:35 AM 28.4 °F - 22.8 °F 80% 30.13 in 10.0 mi Calm Calm - N/A   Overcast
12:55 AM 28.4 °F - 24.1 °F 84% 30.14 in 10.0 mi Calm Calm - N/A   Overcast
1:14 AM 28.4 °F - 23.9 °F 83% 30.14 in 10.0 mi Calm Calm - N/A   Overcast
1:35 AM 28.4 °F 24.6 °F 23.9 °F 83% 30.14 in 10.0 mi ESE 3.5 mph - N/A   Overcast
1:55 AM 28.4 °F 23.3 °F 22.6 °F 79% 30.13 in 10.0 mi ESE 4.6 mph - N/A   Overcast
2:14 AM 28.4 °F 24.6 °F 22.6 °F 79% 30.13 in 10.0 mi East 3.5 mph - N/A   Overcast
2:35 AM 28.4 °F 24.6 °F 23.0 °F 80% 30.14 in 10.0 mi East 3.5 mph - N/A   Overcast
2:55 AM 24.6 °F - 20.1 °F 83% 30.14 in 10.0 mi Calm Calm - N/A   Mostly Cloudy
3:15 AM 20.5 °F 15.6 °F 17.8 °F 89% 30.12 in 10.0 mi East 3.5 mph - N/A   Scattered Clouds
3:35 AM 19.8 °F - 18.0 °F 93% 30.11 in 10.0 mi Calm Calm - N/A   Clear
3:55 AM 20.1 °F - 18.5 °F 93% 30.11 in 10.0 mi Calm Calm - N/A   Clear
4:15 AM 19.4 °F - 16.7 °F 89% 30.11 in 10.0 mi Calm Calm - N/A   Clear
4:35 AM 17.2 °F - 15.6 °F 93% 30.10 in 10.0 mi Calm Calm - N/A   Clear
4:55 AM 16.5 °F - 15.4 °F 96% 30.09 in 10.0 mi Calm Calm - N/A   Clear
5:15 AM 16.3 °F - 15.1 °F 95% 30.08 in 10.0 mi Calm Calm - N/A   Clear
5:35 AM 15.8 °F 10.2 °F 14.9 °F 96% 30.09 in 10.0 mi East 3.5 mph - N/A   Clear
5:55 AM 16.2 °F 10.6 °F 15.4 °F 97% 30.08 in 7.0 mi East 3.5 mph - N/A   Clear
6:15 AM 15.8 °F - 14.9 °F 96% 30.07 in 7.0 mi Calm Calm - N/A   Clear
6:35 AM 13.5 °F - 12.0 °F 94% 30.07 in 7.0 mi Calm Calm - N/A   Clear
6:55 AM 13.5 °F 7.5 °F 11.8 °F 93% 30.07 in 2.0 mi East 3.5 mph - N/A   Clear
7:15 AM 13.5 °F 5.8 °F 11.7 °F 93% 30.06 in 10.0 mi ENE 4.6 mph - N/A   Clear
7:35 AM 12.9 °F 5.2 °F 11.3 °F 93% 30.04 in 5.0 mi ENE 4.6 mph - N/A   Clear
7:55 AM 18.9 °F 9.8 °F 18.5 °F 98% 30.04 in 10.0 mi East 6.9 mph - N/A   Clear
8:15 AM 21.7 °F 13.2 °F 21.6 °F 99% 30.05 in 10.0 mi East 6.9 mph - N/A   Mostly Cloudy
8:35 AM 24.1 °F 13.7 °F 23.9 °F 99% 30.04 in 10.0 mi East 10.4 mph - N/A   Overcast
8:55 AM 26.1 °F 16.2 °F 25.7 °F 99% 30.04 in 10.0 mi East 10.4 mph 18.4 mph N/A   Mostly Cloudy
9:35 AM 28.4 °F 18.0 °F 23.7 °F 83% 30.03 in 10.0 mi East 12.7 mph - N/A   Overcast
9:55 AM 29.5 °F 18.4 °F 23.7 °F 79% 30.03 in 10.0 mi East 15.0 mph 25.3 mph N/A   Overcast
10:15 AM 30.7 °F 19.6 °F 24.8 °F 79% 30.02 in 10.0 mi East 16.1 mph 23.0 mph N/A   Overcast
10:34 AM 31.1 °F 18.6 °F 24.6 °F 77% 30.01 in 10.0 mi East 20.7 mph 28.8 mph N/A   Overcast
10:55 AM 33.3 °F 21.5 °F 25.5 °F 73% 30.01 in 10.0 mi East 20.7 mph 29.9 mph N/A   Overcast
11:15 AM 33.3 °F 21.8 °F 24.8 °F 71% 29.99 in 10.0 mi East 19.6 mph 28.8 mph N/A   Overcast
11:34 AM 33.3 °F 21.5 °F 23.9 °F 69% 29.96 in 10.0 mi ENE 20.7 mph 26.5 mph N/A   Overcast
11:55 AM 33.3 °F 20.6 °F 24.1 °F 69% 29.95 in 10.0 mi East 24.2 mph 31.1 mph N/A   Scattered Clouds
12:15 PM 33.3 °F 21.2 °F 23.7 °F 68% 29.94 in 10.0 mi ENE 21.9 mph 29.9 mph N/A   Scattered Clouds
12:35 PM 33.3 °F 22.5 °F 23.4 °F 67% 29.92 in 10.0 mi ENE 17.3 mph 27.6 mph N/A   Scattered Clouds
12:55 PM 33.3 °F 21.5 °F 23.4 °F 67% 29.91 in 10.0 mi ENE 20.7 mph 29.9 mph N/A   Scattered Clouds
1:15 PM 33.3 °F 21.8 °F 23.7 °F 68% 29.90 in 10.0 mi ENE 19.6 mph 29.9 mph N/A   Mostly Cloudy
1:35 PM 33.3 °F 20.6 °F 24.4 °F 70% 29.89 in 10.0 mi East 24.2 mph 29.9 mph N/A   Overcast
1:55 PM 33.3 °F 21.5 °F 25.0 °F 72% 29.88 in 10.0 mi East 20.7 mph 29.9 mph N/A   Overcast
2:15 PM 33.3 °F 21.8 °F 25.0 °F 72% 29.87 in 10.0 mi ENE 19.6 mph 29.9 mph N/A   Overcast
2:35 PM 33.3 °F 21.2 °F 25.3 °F 73% 29.86 in 10.0 mi ENE 21.9 mph 31.1 mph N/A   Overcast
2:55 PM 33.3 °F 20.9 °F 24.6 °F 71% 29.86 in 10.0 mi East 23.0 mph 35.7 mph N/A   Overcast
3:14 PM 33.3 °F 21.5 °F 25.5 °F 73% 29.84 in 10.0 mi ENE 20.7 mph 27.6 mph N/A   Overcast
3:35 PM 33.3 °F 20.9 °F 26.4 °F 76% 29.84 in 10.0 mi ENE 23.0 mph 28.8 mph N/A   Overcast
3:55 PM 33.3 °F 20.6 °F 27.5 °F 79% 29.83 in 10.0 mi ENE 24.2 mph 29.9 mph N/A   Overcast
4:14 PM 31.8 °F 19.0 °F 26.2 °F 80% 29.83 in 10.0 mi ENE 23.0 mph 34.5 mph N/A   Overcast
4:35 PM 31.5 °F 19.1 °F 25.7 °F 79% 29.82 in 10.0 mi ENE 20.7 mph 31.1 mph N/A   Overcast
4:55 PM 32.5 °F 21.2 °F 26.8 °F 79% 29.81 in 10.0 mi ENE 18.4 mph 28.8 mph N/A   Overcast
5:15 PM 32.0 °F 20.8 °F 26.2 °F 79% 29.81 in 10.0 mi ENE 17.3 mph 24.2 mph N/A   Overcast
5:35 PM 31.1 °F 18.6 °F 25.0 °F 78% 29.80 in 10.0 mi ENE 20.7 mph 28.8 mph N/A   Overcast
5:55 PM 31.1 °F 18.9 °F 24.8 °F 77% 29.81 in 10.0 mi ENE 19.6 mph 31.1 mph N/A   Overcast
6:15 PM 32.0 °F 19.5 °F 26.2 °F 79% 29.82 in 10.0 mi ENE 21.9 mph 29.9 mph N/A   Overcast
6:35 PM 31.1 °F 18.3 °F 25.3 °F 79% 29.81 in 10.0 mi ENE 21.9 mph 32.2 mph N/A   Overcast
6:55 PM 31.6 °F 18.7 °F 25.7 °F 79% 29.81 in 10.0 mi ENE 23.0 mph 28.8 mph N/A   Overcast
7:15 PM 33.1 °F 20.9 °F 27.3 °F 79% 29.81 in 10.0 mi ENE 21.9 mph 31.1 mph N/A   Overcast
7:35 PM 33.3 °F 20.9 °F 27.1 °F 78% 29.80 in 10.0 mi ENE 23.0 mph 32.2 mph N/A   Overcast
7:55 PM 33.3 °F 22.5 °F 27.0 °F 78% 29.79 in 10.0 mi ENE 17.3 mph 29.9 mph N/A   Overcast
8:15 PM 33.3 °F 22.1 °F 26.8 °F 77% 29.78 in 10.0 mi ENE 18.4 mph 31.1 mph N/A   Mostly Cloudy
8:35 PM 33.3 °F 21.8 °F 27.0 °F 78% 29.77 in 10.0 mi ENE 19.6 mph 27.6 mph N/A   Overcast
8:55 PM 33.3 °F 20.3 °F 26.8 °F 77% 29.77 in 10.0 mi ENE 25.3 mph 32.2 mph N/A   Overcast
9:15 PM 33.3 °F 20.9 °F 26.6 °F 77% 29.76 in 10.0 mi NE 23.0 mph 27.6 mph N/A   Overcast
9:35 PM 33.3 °F 20.9 °F 27.0 °F 78% 29.75 in 10.0 mi ENE 23.0 mph 28.8 mph N/A   Overcast
9:55 PM 33.3 °F 21.5 °F 27.3 °F 79% 29.73 in 10.0 mi NE 20.7 mph 25.3 mph N/A   Overcast
10:15 PM 33.3 °F 21.5 °F 27.5 °F 79% 29.73 in 10.0 mi ENE 20.7 mph 26.5 mph N/A   Overcast
10:35 PM 33.3 °F 22.1 °F 27.9 °F 81% 29.72 in 10.0 mi NE 18.4 mph 26.5 mph N/A   Overcast
10:54 PM 33.3 °F 22.5 °F 28.4 °F 82% 29.71 in 5.0 mi ENE 17.3 mph 26.5 mph N/A Snow Light Snow
11:15 PM 31.1 °F 20.5 °F 27.5 °F 87% 29.70 in 3.0 mi ENE 15.0 mph - N/A Snow Light Snow
11:35 PM 31.1 °F 19.7 °F 28.4 °F 90% 29.69 in 5.0 mi ENE 17.3 mph 25.3 mph N/A Snow Light Snow
11:54 PM 31.8 °F 21.0 °F 29.1 °F 90% 29.68 in 5.0 mi NE 16.1 mph 26.5 mph N/A Snow Light Snow